Hourly Data Report for April 20, 2004

SHERBROOKE A
QUEBEC

45°26'00.000" N
71°41'00.000" W
241.40 m
7028124
71610
YSC

Download Data

Hourly Data (April 2004)
Hourly Data Report for April 20, 2004
TIME
LST
Temp Definition
°C
Dew Point Definition
°C
Rel Hum Definition
%
Precip. Amount Definition
mm

Wind Dir Definition
10's deg

Wind Spd Definition
km/h
Visibility Definition
km
Stn Press Definition
kPa
Hmdx Definition


Wind Chill Definition


Weather Definition


00:00 7.8 4.6 80   30 26 15.0 97.89      
01:00 5.3 0.0 69   32 22 15.0 98.13      
02:00 4.4 0.2 74   30 15 15.0 98.29      
03:00 4.2 -1.0 69   31 22 15.0 98.38     Rain
04:00 3.2 -1.9 69   30 22 15.0 98.49      
05:00 3.1 -1.7 71   32 17 15.0 98.62     Rain
06:00 2.7 -2.3 70   30 22 15.0 98.77      
07:00 2.3 -3.4 66   31 26 24.1 98.88     Cloudy
08:00 2.5 -3.4 65   30 20 24.1 98.96     Cloudy
09:00 2.9 -3.6 62   32 19 24.1 99.03     Cloudy
10:00 4.4 -2.9 59   30 11 24.1 99.05     Cloudy
11:00 4.8 -2.8 58   29 28 24.1 99.08     Mostly Cloudy
12:00 5.9 -3.5 51   35 15 24.1 99.10     Mostly Cloudy
13:00 7.0 -3.1 49   30 20 24.1 99.10     Mainly Clear
14:00 8.2 -2.6 46   29 19 24.1 99.10     Mainly Clear
15:00 8.8 -2.8 44   30 19 24.1 99.11     Mainly Clear
16:00 8.9 -4.2 39   32 11 24.1 99.12     Mainly Clear
17:00 8.3 -4.7 39   1 9 15.0 99.13      
18:00 7.4 -4.5 43   34 6 15.0 99.15      
19:00 4.2 -4.6 53   31 6 15.0 99.21      
20:00 1.1 -3.8 70   35 4 15.0 99.26      
21:00 -0.8 -4.5 76   13 6 15.0 99.27   -3  
22:00 -1.4 -3.7 84   7 6 15.0 99.29   -4  
23:00 -0.6 -3.7 80   10 11 15.0 99.28   -4  

Notes on Data Quality.

Legend

  • E = Estimated
  • M = Missing
  • NA = Not Available*
  • [empty] = Indicates an unobserved value
Date modified: